This is the latest recevied weather packets stored in our database for station/object NW5W-12. If no packets are shown the sender has not sent any weather packets the latest 10 day(s).
| Time | Temp. | Humidity | Pressure | Rain* | Wind** | Luminosity | Snow |
|---|---|---|---|---|---|---|---|
| 1778066142 | 2.78° C | 87% | 1015.8 hPa | 3.56 mm | - | - | - |
| 1778065843 | 2.78° C | 88% | 1015.7 hPa | 3.56 mm | - | - | - |
| 1778065542 | 2.78° C | 89% | 1015.7 hPa | 3.56 mm | - | - | - |
| 1778065242 | 2.22° C | 90% | 1015.6 hPa | 3.56 mm | - | - | - |
| 1778064942 | 2.22° C | 92% | 1015.5 hPa | 3.56 mm | - | - | - |
| 1778064642 | 2.22° C | 95% | 1015.5 hPa | 3.56 mm | - | - | - |
| 1778064342 | 1.67° C | 96% | 1015.4 hPa | 3.56 mm | - | - | - |
| 1778064042 | 1.67° C | 96% | 1015.3 hPa | 3.56 mm | - | - | - |
| 1778063742 | 1.67° C | 96% | 1015.4 hPa | 3.56 mm | - | - | - |
| 1778063442 | 1.67° C | 96% | 1015.3 hPa | 3.56 mm | - | - | - |
| 1778063142 | 2.22° C | 96% | 1015.3 hPa | 3.56 mm | - | - | - |
| 1778062842 | 2.22° C | 96% | 1015.2 hPa | 3.56 mm | - | - | - |
| 1778062542 | 2.22° C | 96% | 1015.1 hPa | 3.56 mm | - | - | - |
| 1778062242 | 2.78° C | 95% | 1015.1 hPa | 3.56 mm | - | - | - |
| 1778061942 | 2.78° C | 95% | 1014.9 hPa | 3.56 mm | - | - | - |
| 1778061642 | 2.78° C | 95% | 1014.9 hPa | 3.56 mm | - | - | - |
| 1778061342 | 3.33° C | 94% | 1014.7 hPa | 3.56 mm | - | - | - |
| 1778061042 | 3.89° C | 94% | 1014.7 hPa | 3.56 mm | - | - | - |
| 1778060742 | 3.89° C | 93% | 1014.6 hPa | 3.56 mm | - | - | - |
| 1778060442 | 3.89° C | 92% | 1014.6 hPa | 3.56 mm | - | - | - |
| 1778059842 | 3.89° C | 92% | 1014.5 hPa | 3.56 mm | - | - | - |
| 1778059543 | 3.89° C | 94% | 1014.5 hPa | 3.81 mm | - | - | - |
| 1778059242 | 3.89° C | 94% | 1014.5 hPa | 3.81 mm | - | - | - |
| 1778058942 | 3.89° C | 93% | 1014.6 hPa | 3.3 mm | - | - | - |
| 1778058642 | 3.89° C | 93% | 1014.6 hPa | 3.3 mm | - | - | - |
* Rain since midnight (hover to see other rain measurements)
** Current wind speed in m/s (hover to see current wind gust speed)